sat.trackr.live / text

‹ back to catalog

STARLINK-6079

NORAD 56120 · 2023-046AD

PAYLOAD ACTIVE UNKNOWN

§ Identity

Operator
Country
US
Launch date
2023-03-29
Launch site
AFETR
Launch vehicle
Mass (kg)
RCS (m²)

Purposes: comms

External: N2YO · Heavens-Above · Gunter

§ Orbital elements

Epoch: 2026-05-25T04:03:27.774144Z

Period
94.27 min
Inclination
43.0033°
Eccentricity
0.0000547
Mean motion
15.27579499 rev/d
Perigee alt
482.7 km
Apogee alt
483.4 km
Semi-major
6,861.2 km
B*
-2.7565e-5
RAAN
75.3344°
Arg perigee
242.4999°
Mean anomaly
117.5798°
Rev number
17,389

§ Raw data

STARLINK-60791 56120U 23046AD  26145.16907146 -.00001020  00000+0 -27565-4 0  99942 56120  43.0033  75.3344 0000547 242.4999 117.5798 15.27579499173894

JSON: /api/v1/satellites/56120 · /tle

For live sub-satellite position, see the globe view (requires WebGL).

§ Visibility from observer

Set your observer location to see the next 7 days of passes ≥ 10°. The values pass through the URL so the page stays shareable.

No JS? Fill the form by hand. The geolocation button needs JavaScript.